Dumas, TX

7:32 AM CDT on September 22, 2017 (GMT -0500)
Moore County

Weather History for KDUX - July, 2013

Change the Weather History Date:

Wednesday, July 3, 2013

  Actual Average (KDHT) Record (KDHT)
Temperature  
Mean Temperature 67 °F -  
Max Temperature 81 °F 88 °F 105 °F (1957)
Min Temperature 54 °F 61 °F 54 °F (1985)
Cooling Degree Days 2    
Growing Degree Days 17 (Base 50)    
Moisture  
Dew Point 46 °F    
Average Humidity 51    
Maximum Humidity 81    
Minimum Humidity 30    
Precipitation  
Precipitation 0.08 in - - ()
Sea Level Pressure  
Sea Level Pressure 30.11 in    
Wind  
Wind Speed 10 mph (SE)    
Max Wind Speed 26 mph    
Max Gust Speed 37 mph    
Visibility 10 miles    
Events Rain    
Averages and records for this station are not official NWS values.
T = Trace of Precipitation, MM = Missing Value Source: NWS Daily Summary

Daily Weather History Graph

Daily Weather History Graph

Search for Another Location

Airport or City:

Trip Planner

Search our weather history database for the weather conditions in past years. The results will help you decide how hot, cold, wet, or windy it might be!

Date:

Astronomy

Jul. 03, 2013 Rise Set
Actual Time 6:36 AM CDT 9:08 PM CDT
Civil Twilight 6:06 AM CDT 9:38 PM CDT
Nautical Twilight 5:29 AM CDT 10:15 PM CDT
Astronomical Twilight 4:48 AM CDT 10:56 PM CDT
Moon 3:11 AM CDT (7/3) 5:23 PM CDT (7/3)
Length of Visible Light 15h 31m
Length of Day
14h 31m
Waning Crescent, 18% of the Moon is Illuminated
Jul 3
Waning Crescent
Jul 8
New
Jul 15
First Quarter
Jul 22
Full
Jul 29
Last Quarter

Hourly Weather History & Observations

Time (CDT) Temp. Dew Point Humidity Pressure Visibility Wind Dir Wind Speed Gust Speed Precip Events Conditions
12:15 AM 63.0 °F 41.2 °F 45% 30.20 in 10.0 mi ESE 6.9 mph - N/A   Clear
12:35 AM 59.9 °F 39.6 °F 47% 30.20 in 10.0 mi SSE 8.1 mph - N/A   Clear
12:55 AM 60.1 °F 40.6 °F 49% 30.20 in 10.0 mi SE 8.1 mph - N/A   Clear
1:15 AM 60.4 °F 39.6 °F 46% 30.20 in 10.0 mi SE 8.1 mph - N/A   Clear
1:35 AM 59.9 °F 39.2 °F 46% 30.20 in 10.0 mi SE 9.2 mph - N/A   Clear
1:55 AM 59.5 °F 38.8 °F 46% 30.19 in 10.0 mi SE 8.1 mph - N/A   Clear
2:15 AM 58.6 °F 38.8 °F 48% 30.19 in 10.0 mi SE 10.4 mph - N/A   Clear
2:35 AM 59.9 °F 38.3 °F 45% 30.18 in 10.0 mi ESE 9.2 mph - N/A   Clear
2:55 AM 59.4 °F 38.1 °F 45% 30.18 in 10.0 mi SE 9.2 mph - N/A   Clear
3:15 AM 58.1 °F 38.3 °F 48% 30.17 in 10.0 mi SE 8.1 mph - N/A   Clear
3:35 AM 59.2 °F 38.3 °F 46% 30.17 in 10.0 mi SE 9.2 mph - N/A   Scattered Clouds
3:55 AM 59.0 °F 39.2 °F 48% 30.16 in 10.0 mi SE 6.9 mph - N/A   Clear
4:15 AM 58.5 °F 38.3 °F 47% 30.16 in 10.0 mi SSE 6.9 mph - N/A   Clear
4:35 AM 56.7 °F 39.6 °F 53% 30.16 in 10.0 mi South 3.5 mph - N/A   Clear
4:55 AM 57.2 °F 40.5 °F 54% 30.16 in 10.0 mi South 5.8 mph - N/A   Clear
5:15 AM 56.5 °F 40.3 °F 55% 30.15 in 10.0 mi SSE 8.1 mph - N/A   Clear
5:35 AM 55.4 °F 40.3 °F 57% 30.15 in 10.0 mi SE 6.9 mph - N/A   Clear
5:55 AM 54.5 °F 40.6 °F 60% 30.15 in 10.0 mi SE 8.1 mph - N/A   Clear
6:15 AM 55.2 °F 40.1 °F 57% 30.14 in 10.0 mi SE 9.2 mph - N/A   Scattered Clouds
6:35 AM 55.2 °F 39.2 °F 55% 30.14 in 10.0 mi SSE 8.1 mph - N/A   Scattered Clouds
6:55 AM 54.9 °F 39.6 °F 56% 30.14 in 10.0 mi South 9.2 mph - N/A   Clear
7:15 AM 57.0 °F 41.0 °F 55% 30.14 in 10.0 mi SE 6.9 mph - N/A   Clear
7:35 AM 59.9 °F 40.3 °F 48% 30.15 in 10.0 mi ESE 8.1 mph - N/A   Clear
7:55 AM 61.3 °F 41.5 °F 48% 30.15 in 10.0 mi SE 9.2 mph - N/A   Scattered Clouds
8:15 AM 63.0 °F 41.9 °F 46% 30.15 in 10.0 mi SSE 10.4 mph - N/A   Scattered Clouds
8:35 AM 63.9 °F 41.9 °F 45% 30.15 in 10.0 mi SE 8.1 mph - N/A   Scattered Clouds
8:55 AM 64.4 °F 42.4 °F 45% 30.15 in 10.0 mi SE 6.9 mph - N/A   Scattered Clouds
9:15 AM 64.4 °F 44.2 °F 48% 30.16 in 10.0 mi ESE 11.5 mph - N/A   Mostly Cloudy
9:35 AM 63.9 °F 44.2 °F 49% 30.17 in 10.0 mi ESE 15.0 mph - N/A   Mostly Cloudy
9:55 AM 63.9 °F 45.5 °F 51% 30.18 in 10.0 mi SE 5.8 mph - N/A   Mostly Cloudy
10:15 AM 59.9 °F 49.1 °F 67% 30.18 in 4.0 mi ESE 8.1 mph - 0.04 in Rain Rain
10:35 AM 58.3 °F 51.3 °F 77% 30.17 in 10.0 mi ESE 11.5 mph - 0.06 in Rain Light Rain
10:55 AM 59.4 °F 52.0 °F 77% 30.17 in 10.0 mi SE 11.5 mph - 0.07 in Rain Light Rain
11:15 AM 58.6 °F 52.7 °F 81% 30.17 in 10.0 mi ESE 8.1 mph - N/A   Mostly Cloudy
11:35 AM 61.0 °F 54.1 °F 78% 30.15 in 10.0 mi SE 11.5 mph - N/A   Scattered Clouds
11:55 AM 60.8 °F 53.6 °F 77% 30.15 in 10.0 mi SE 10.4 mph - N/A   Scattered Clouds
12:15 PM 61.3 °F 54.3 °F 78% 30.15 in 10.0 mi ENE 12.7 mph - N/A   Mostly Cloudy
12:35 PM 60.8 °F 53.8 °F 78% 30.13 in 10.0 mi ESE 11.5 mph - N/A   Scattered Clouds
12:55 PM 61.0 °F 54.1 °F 78% 30.13 in 10.0 mi ESE 13.8 mph - N/A   Scattered Clouds
1:15 PM 61.7 °F 53.2 °F 74% 30.13 in 10.0 mi ESE 11.5 mph - N/A   Scattered Clouds
1:35 PM 62.1 °F 53.4 °F 73% 30.15 in 10.0 mi NNE 18.4 mph 27.6 mph N/A   Mostly Cloudy
1:55 PM 67.5 °F 48.2 °F 50% 30.12 in 10.0 mi East 16.1 mph 36.8 mph N/A   Scattered Clouds
2:15 PM 64.4 °F 48.0 °F 55% 30.13 in 10.0 mi ENE 26.5 mph 33.4 mph N/A   Scattered Clouds
2:35 PM 69.1 °F 49.6 °F 50% 30.09 in 10.0 mi ESE 24.2 mph 32.2 mph N/A   Scattered Clouds
2:55 PM 72.3 °F 50.4 °F 46% 30.07 in 10.0 mi SE 23.0 mph 31.1 mph N/A   Clear
3:15 PM 71.1 °F 52.9 °F 53% 30.07 in 10.0 mi SE 19.6 mph 26.5 mph N/A   Clear
3:35 PM 72.5 °F 52.3 °F 49% 30.06 in 10.0 mi SE 16.1 mph - N/A   Clear
3:55 PM 75.0 °F 52.0 °F 44% 30.05 in 10.0 mi SE 19.6 mph 23.0 mph N/A   Clear
4:15 PM 75.9 °F 50.5 °F 41% 30.05 in 10.0 mi SSE 19.6 mph 26.5 mph N/A   Clear
4:35 PM 76.3 °F 49.8 °F 39% 30.03 in 10.0 mi SE 19.6 mph 24.2 mph N/A   Clear
4:55 PM 77.7 °F 49.5 °F 37% 30.02 in 10.0 mi SE 20.7 mph 24.2 mph N/A   Clear
5:15 PM 79.3 °F 47.1 °F 32% 30.02 in 10.0 mi SSE 21.9 mph 26.5 mph N/A   Clear
5:35 PM 79.9 °F 45.9 °F 30% 30.02 in 10.0 mi SSE 24.2 mph 29.9 mph N/A   Clear
5:55 PM 80.1 °F 46.8 °F 31% 30.01 in 10.0 mi SSE 19.6 mph 26.5 mph N/A   Clear
6:15 PM 80.2 °F 46.4 °F 30% 30.00 in 10.0 mi SSE 18.4 mph 24.2 mph N/A   Clear
6:35 PM 79.3 °F 46.6 °F 31% 30.00 in 10.0 mi SSE 21.9 mph 25.3 mph N/A   Clear
6:55 PM 77.5 °F 46.2 °F 33% 30.00 in 10.0 mi SSE 15.0 mph 23.0 mph N/A   Clear
7:15 PM 78.6 °F 47.3 °F 33% 30.00 in 10.0 mi South 17.3 mph 21.9 mph N/A   Clear
7:35 PM 79.7 °F 46.2 °F 31% 30.00 in 10.0 mi South 19.6 mph 23.0 mph N/A   Clear
7:55 PM 78.8 °F 46.6 °F 32% 30.00 in 10.0 mi South 16.1 mph 21.9 mph N/A   Clear
8:15 PM 77.9 °F 46.0 °F 32% 30.00 in 10.0 mi South 15.0 mph - N/A   Clear
8:35 PM 74.7 °F 46.6 °F 37% 30.00 in 10.0 mi South 12.7 mph - N/A   Clear
8:55 PM 72.5 °F 47.5 °F 41% 30.00 in 10.0 mi South 9.2 mph - N/A   Clear
9:15 PM 70.7 °F 48.2 °F 45% 30.00 in 10.0 mi South 9.2 mph - N/A   Clear
9:35 PM 66.6 °F 49.6 °F 54% 30.00 in 10.0 mi SE 9.2 mph - N/A   Clear
9:55 PM 67.6 °F 50.5 °F 54% 30.01 in 10.0 mi SE 9.2 mph - N/A   Clear
10:15 PM 67.3 °F 51.3 °F 56% 30.02 in 10.0 mi SE 6.9 mph - N/A   Scattered Clouds
10:35 PM 66.4 °F 51.6 °F 59% 30.02 in 10.0 mi SE 9.2 mph - N/A   Clear
10:55 PM 66.2 °F 51.4 °F 59% 30.02 in 10.0 mi SE 10.4 mph - N/A   Clear
11:15 PM 66.2 °F 50.9 °F 58% 30.02 in 10.0 mi SE 10.4 mph - N/A   Clear
11:35 PM 64.8 °F 52.3 °F 64% 30.03 in 10.0 mi East 4.6 mph - N/A Rain Light Rain
11:55 PM 64.8 °F 52.9 °F 65% 30.05 in 7.0 mi SE 5.8 mph - 0.01 in Rain Light Rain